Location: Indian Tree Observatory
(39.4030°N, 104.5929°W)
Time: 03:07:41
(UTC-06:00)

Tiangong 2 - Visible Passes

Search period start: 26 March 2019 00:00
Search period end: 05 April 2019 00:00
Orbit: 380 x 389 km, 42.8° (Epoch: 26 March)

Date Brightness Start Highest point End Pass type
(mag) Time Alt. Az. Time Alt. Az. Time Alt. Az.
28 Mar 3.4 20:15:59 10° SSE 20:16:24 11° SSE 20:16:24 11° SSE visible
29 Mar 2.4 20:50:55 10° SW 20:52:46 27° SSW 20:52:46 27° SSW visible
30 Mar 2.6 19:52:01 10° SSW 19:54:25 20° SSE 19:56:42 11° E visible
30 Mar 3.4 21:27:46 10° WSW 21:28:57 21° WSW 21:28:57 21° WSW visible
31 Mar 1.0 20:28:16 10° WSW 20:31:22 62° SSE 20:32:42 30° E visible
01 Apr 1.5 21:05:29 10° W 21:08:31 57° NNW 21:08:31 57° NNW visible
02 Apr 1.1 20:05:50 10° WSW 20:08:58 81° NNW 20:11:58 11° ENE visible
02 Apr 3.7 21:42:54 10° WNW 21:44:12 21° WNW 21:44:12 21° WNW visible
03 Apr 1.9 20:43:12 10° W 20:46:15 45° N 20:47:33 27° NE visible
04 Apr 2.3 21:20:35 10° WNW 21:23:02 38° NNW 21:23:02 38° NNW visible
